STARLINK-36701

Last updated on Thu Mar 05 2026 00:02:08 GMT+0000 (Coordinated Universal Time)

1 67658U 26022L 26063.31471662 .00434008 00000+0 27566-2 0 9997 2 67658 97.2836 97.0388 0000776 96.7057 263.4296 15.75261194 4702
UTC large
Height (km)
Speed (km/s)
/
Latitude / Longitude
Inclination (degrees)
Orbital Period (minutes)
Azimuth
Elevation
Range (km)
Doppler Factor

Next 0 passes for location: London (51.5072 / 0.1276)

Sorry there are no passes over London.